Temperature
-9 -10 -11 -11 -12 -12 -13 -13 -13 -13 -13 -14 -14 -14 -14 -13 -13 -12 -12 -11 -10 -9 -9 -9 -8 -8 -7 -7 -7 -6 -5 -5 -4 -3 -3 -1 0 2 4 5 7 8 9
-10 -10 -11 -12 -12 -13 -13 -13 -13 -13 -13 -13 -14 -14 -13 -13 -13 -12 -11 -11 -10 -9 -9 -8 -8 -8 -7 -7 -6 -6 -5 -5 -4 -4 -3 -1 -0 1 3 4 5 7 8
-10 -10 -11 -12 -13 -13 -13 -13 -13 -13 -13 -13 -13 -13 -13 -13 -12 -12 -11 -10 -10 -9 -9 -8 -8 -8 -7 -7 -6 -6 -5 -5 -4 -4 -3 -2 -0 1 2 3 4 6 7
-10 -11 -11 -12 -13 -13 -13 -13 -13 -13 -13 -13 -13 -13 -13 -12 -12 -11 -10 -10 -9 -9 -9 -8 -8 -8 -8 -7 -7 -6 -6 -5 -4 -3 -3 -2 -1 0 1 2 4 5 6
-10 -11 -12 -12 -13 -13 -13 -13 -13 -13 -13 -13 -13 -13 -12 -12 -11 -10 -10 -10 -9 -9 -9 -9 -8 -8 -8 -8 -7 -7 -6 -5 -5 -4 -3 -2 -1 -0 1 2 3 4 6
-10 -11 -12 -12 -13 -13 -13 -13 -13 -13 -13 -13 -12 -12 -12 -11 -10 -10 -9 -10 -9 -9 -9 -9 -9 -9 -9 -8 -8 -7 -7 -7 -6 -4 -3 -2 -2 -1 0 1 2 4 5
-10 -11 -12 -12 -13 -13 -13 -13 -13 -13 -13 -13 -12 -12 -11 -11 -10 -10 -10 -10 -10 -10 -10 -9 -9 -9 -9 -9 -8 -8 -7 -7 -7 -6 -5 -4 -3 -2 -0 1 2 3 5
-10 -11 -12 -12 -13 -13 -13 -13 -13 -13 -13 -13 -12 -12 -12 -11 -10 -11 -11 -10 -10 -10 -10 -10 -10 -10 -9 -9 -9 -9 -8 -7 -7 -7 -6 -5 -4 -3 -1 0 2 3 4
-10 -11 -11 -12 -13 -13 -13 -13 -13 -13 -13 -13 -13 -12 -12 -12 -11 -11 -11 -11 -11 -11 -11 -11 -11 -10 -10 -10 -9 -9 -9 -8 -7 -7 -6 -5 -4 -3 -2 -0 1 2 3
-10 -10 -11 -12 -12 -13 -13 -13 -13 -13 -13 -13 -13 -13 -13 -12 -12 -11 -12 -12 -12 -12 -12 -11 -11 -11 -11 -11 -10 -10 -10 -9 -8 -7 -6 -5 -4 -3 -2 -1 1 2 3
-9 -10 -11 -12 -12 -13 -13 -13 -13 -13 -13 -13 -13 -13 -13 -13 -12 -12 -12 -13 -12 -13 -13 -13 -13 -12 -12 -11 -11 -11 -11 -10 -9 -8 -7 -6 -5 -3 -2 -1 -0 1 2
-9 -9 -10 -11 -12 -12 -12 -13 -13 -13 -13 -13 -13 -13 -13 -13 -13 -13 -13 -13 -13 -13 -14 -14 -13 -13 -12 -12 -12 -12 -11 -10 -9 -9 -8 -7 -6 -5 -4 -2 -1 0 1
-8 -9 -10 -11 -11 -12 -12 -13 -13 -13 -13 -13 -13 -13 -13 -13 -13 -13 -13 -13 -14 -13 -13 -14 -14 -14 -13 -12 -12 -11 -11 -11 -10 -10 -10 -9 -8 -7 -5 -3 -2 -1 0
-8 -9 -9 -10 -11 -11 -12 -12 -13 -13 -13 -13 -13 -13 -13 -13 -13 -13 -13 -13 -14 -13 -13 -13 -13 -13 -13 -13 -12 -12 -12 -12 -12 -11 -11 -10 -9 -8 -6 -4 -3 -2 -1
-8 -8 -9 -10 -10 -10 -11 -12 -12 -13 -13 -13 -13 -13 -13 -13 -13 -13 -13 -13 -14 -14 -13 -13 -14 -14 -14 -14 -13 -13 -13 -12 -12 -12 -11 -10 -10 -9 -8 -7 -5 -3 -2
-8 -8 -9 -10 -10 -10 -10 -10 -11 -12 -12 -13 -13 -13 -13 -13 -13 -13 -13 -14 -14 -14 -14 -14 -14 -14 -15 -14 -14 -14 -14 -13 -13 -12 -12 -11 -11 -10 -9 -8 -7 -6 -5
-7 -8 -8 -9 -10 -10 -10 -10 -10 -10 -11 -11 -12 -12 -13 -13 -13 -13 -13 -14 -14 -14 -14 -14 -14 -14 -15 -15 -15 -15 -14 -14 -14 -13 -13 -12 -12 -11 -10 -10 -9 -8 -7
-7 -7 -8 -9 -9 -10 -10 -10 -11 -11 -10 -11 -11 -11 -12 -13 -13 -13 -13 -14 -13 -14 -14 -14 -14 -14 -14 -14 -15 -15 -14 -14 -14 -14 -13 -13 -12 -12 -11 -11 -10 -10 -9
-6 -7 -7 -8 -8 -9 -9 -10 -10 -10 -10 -10 -10 -11 -11 -11 -12 -12 -13 -13 -13 -14 -14 -14 -14 -14 -14 -14 -14 -15 -15 -14 -14 -14 -14 -13 -13 -13 -12 -12 -11 -11 -10
-6 -6 -7 -7 -7 -8 -8 -9 -10 -10 -10 -10 -11 -11 -11 -11 -11 -11 -12 -12 -13 -13 -13 -14 -14 -14 -14 -14 -14 -14 -14 -14 -14 -14 -14 -14 -14 -13 -13 -13 -12 -12 -11
-5 -5 -6 -6 -6 -7 -7 -8 -9 -10 -10 -10 -11 -11 -11 -11 -11 -11 -11 -11 -12 -12 -13 -13 -13 -14 -14 -14 -14 -14 -14 -14 -14 -14 -14 -14 -14 -14 -13 -13 -13 -13 -12
-5 -5 -5 -6 -6 -6 -7 -7 -8 -9 -10 -10 -11 -11 -11 -11 -11 -11 -11 -11 -11 -11 -12 -12 -12 -13 -13 -13 -14 -14 -14 -14 -14 -14 -14 -14 -14 -14 -14 -14 -13 -13 -13
-5 -5 -5 -5 -6 -6 -6 -7 -7 -8 -9 -10 -11 -11 -12 -12 -12 -11 -11 -11 -11 -11 -11 -11 -12 -12 -12 -13 -13 -13 -14 -14 -14 -14 -14 -14 -14 -14 -14 -14 -14 -13 -13
-5 -5 -5 -5 -6 -6 -6 -6 -7 -7 -8 -9 -10 -11 -11 -12 -12 -11 -11 -11 -11 -10 -10 -10 -11 -11 -11 -12 -12 -13 -13 -13 -14 -14 -14 -14 -14 -14 -14 -14 -14 -14 -14
-5 -5 -5 -6 -6 -6 -6 -7 -7 -7 -8 -9 -10 -10 -11 -11 -12 -11 -11 -11 -11 -10 -10 -10 -10 -10 -11 -11 -12 -12 -13 -13 -13 -13 -14 -14 -14 -14 -14 -14 -14 -14 -14
-5 -5 -6 -6 -6 -6 -7 -7 -7 -7 -8 -8 -9 -10 -11 -11 -12 -12 -11 -11 -11 -10 -10 -10 -9 -9 -10 -10 -11 -11 -12 -13 -13 -13 -13 -13 -14 -14 -14 -14 -14 -14 -14
Wind_Speed
11 10 12 12 13 14 12 13 13 14 16 14 14 15 15 14 13 13 14 15 14 14 13 13 13 11 9 9 9 10 10 11 14 13 10 10 11 11 10 9 11 8 7
11 11 12 13 12 13 14 14 16 14 16 17 15 15 16 15 14 14 15 15 15 15 14 13 12 10 11 10 9 10 10 10 12 15 11 9 10 9 9 10 10 8 5
11 12 13 13 13 14 14 14 16 15 15 16 15 16 16 16 16 15 14 15 14 13 11 11 10 10 10 9 9 9 9 9 9 11 11 7 7 7 7 8 9 7 6
12 12 13 13 14 14 14 13 14 14 14 15 16 16 17 17 16 15 13 12 10 8 8 9 9 10 10 10 8 9 9 9 8 8 9 7 6 5 5 5 6 5 4
12 13 13 13 13 13 13 13 13 13 15 15 16 17 17 16 12 11 9 7 7 8 9 9 10 13 17 14 11 10 10 8 7 6 6 5 4 3 3 4 6 4 3
11 12 13 14 14 13 13 13 14 14 15 15 16 18 18 16 19 20 15 10 10 10 10 10 11 12 17 20 21 20 17 12 10 7 5 5 4 3 3 4 4 4 3
11 12 13 13 13 13 14 14 14 13 13 14 15 17 18 21 26 24 24 14 12 12 11 11 11 13 14 11 16 19 18 21 19 11 9 8 7 6 5 5 4 4 3
10 11 12 12 12 12 12 12 12 10 11 12 13 15 16 22 27 24 23 15 12 13 13 12 11 13 15 15 13 12 12 14 16 12 10 9 9 8 6 6 5 3 2
10 11 12 11 12 12 12 12 9 9 9 11 12 14 15 19 26 24 20 10 11 13 14 16 15 13 23 24 16 14 13 13 18 21 20 18 18 18 12 4 3 4 3
11 11 11 11 11 10 11 10 8 8 10 11 12 12 14 14 24 25 20 10 11 11 11 14 21 22 25 25 15 14 15 14 14 15 16 17 15 15 17 8 4 2 2
10 10 10 11 10 9 10 8 9 10 10 10 11 11 12 16 21 26 23 10 11 11 11 11 13 24 25 26 21 15 19 15 13 13 12 12 12 12 12 10 7 3 1
9 9 9 9 9 11 9 9 9 8 8 8 8 9 9 11 16 20 24 21 17 11 11 10 13 23 24 25 20 23 25 19 12 12 12 13 13 12 12 11 10 7 5
9 9 8 9 8 8 8 8 8 8 6 7 7 8 9 9 11 19 21 21 21 12 10 18 20 23 21 18 24 26 20 14 13 13 13 13 12 12 12 10 10 8 10
8 8 8 7 8 8 7 7 7 7 6 6 7 7 8 8 7 6 6 9 14 12 10 14 19 21 18 19 19 17 14 14 13 12 12 12 12 12 12 11 9 8 7
8 8 8 8 7 7 8 7 9 6 10 8 5 5 6 6 10 15 10 7 5 9 9 8 10 11 12 12 12 13 13 13 13 13 12 12 13 13 12 12 11 10 9
7 7 6 6 7 7 7 8 13 14 17 17 15 13 10 13 15 14 13 14 14 15 9 7 8 9 10 11 11 12 12 12 12 12 12 12 12 12 12 11 11 11 11
6 7 6 7 6 7 8 8 10 12 16 16 16 16 15 15 15 14 13 11 12 11 5 5 5 6 7 8 8 8 9 10 10 10 11 11 11 11 11 12 12 11 11
7 8 8 5 6 6 7 7 7 9 11 10 13 15 16 16 15 14 13 9 6 5 3 3 4 4 4 5 6 6 7 8 8 9 9 10 10 10 11 11 11 12 11
6 6 6 5 6 6 7 7 7 9 9 10 9 11 15 14 14 13 11 4 5 5 4 4 4 3 3 4 4 5 5 5 6 6 7 8 9 9 10 10 10 15 13
5 10 9 6 6 7 7 7 8 9 9 9 10 10 10 8 7 8 7 6 5 5 5 5 4 4 3 3 3 3 4 4 5 5 6 6 7 7 8 10 9 9 10
5 6 11 7 6 6 6 6 7 8 9 10 10 13 18 9 9 9 8 7 7 7 6 6 5 5 4 3 3 3 3 3 3 3 4 4 5 6 6 6 8 8 8
4 4 5 5 6 6 6 6 7 8 9 10 10 12 19 11 9 9 9 9 8 7 7 6 6 5 5 5 4 4 3 3 2 2 2 3 3 4 5 5 6 7 7
3 4 5 5 5 9 8 7 7 8 9 10 10 11 12 11 11 11 11 11 9 8 9 9 7 6 9 10 10 7 5 5 4 3 2 1 1 2 3 4 5 5 6
3 4 5 5 6 6 7 7 8 9 10 10 10 11 12 12 12 14 13 12 11 11 11 10 10 11 13 12 12 13 13 11 9 8 6 3 1 0 1 2 3 3 4
2 3 4 4 5 6 7 7 8 9 10 10 11 11 12 13 13 14 13 12 14 13 14 13 11 13 15 17 16 16 16 15 13 12 10 6 4 3 2 1 1 2 2
1 2 3 4 4 5 6 7 8 9 9 10 11 11 12 12 13 14 13 13 15 14 14 14 14 15 16 16 19 21 20 19 18 16 13 9 6 5 4 3 3 2 3
Wind_Direction
336 332 329 326 324 323 321 319 318 318 319 319 319 317 315 312 311 309 307 306 306 306 304 302 300 297 296 293 288 281 276 274 276 283 285 289 292 297 303 307 303 291 268
332 330 328 325 323 322 321 319 319 318 320 319 318 317 315 315 311 308 306 307 304 304 305 303 303 303 302 298 293 287 282 278 277 282 284 282 283 287 294 299 300 293 269
334 333 329 326 326 325 323 322 322 322 322 322 321 319 317 315 312 306 301 300 299 301 305 308 313 314 314 314 307 302 297 292 281 278 281 275 274 277 280 286 288 289 274
337 333 331 329 328 326 325 325 327 328 328 329 328 325 322 318 311 304 299 300 307 318 330 335 340 341 339 333 330 327 319 309 299 289 282 275 266 264 263 267 276 276 270
335 335 334 331 330 329 330 332 333 336 340 337 336 333 331 330 326 322 326 347 357 359 356 351 351 4 4 3 3 357 349 340 329 311 296 284 274 259 249 255 259 265 283
333 332 332 335 336 336 337 341 342 343 341 341 341 340 342 343 358 18 31 31 21 11 3 356 357 10 15 11 11 12 10 5 358 349 332 317 310 300 283 260 244 229 230
331 331 334 336 338 338 343 346 345 342 342 343 342 346 349 355 13 30 38 31 22 16 8 4 8 9 21 11 7 11 9 11 14 8 355 347 341 335 313 274 244 222 218
332 334 337 339 339 339 343 345 341 339 343 343 341 348 352 357 16 32 32 25 21 17 11 6 8 5 18 23 8 7 8 6 7 8 3 354 347 342 318 286 273 256 240
339 340 339 340 341 343 347 344 339 337 341 344 347 349 353 355 13 30 34 15 18 14 12 11 12 12 17 22 14 7 8 5 4 8 10 9 6 3 3 329 269 211 182
341 339 339 343 342 343 344 339 337 338 346 349 349 351 352 352 9 24 38 24 17 12 10 6 9 16 15 21 18 9 12 5 358 359 3 5 4 2 7 5 332 250 172
335 337 341 342 339 345 340 335 336 344 344 345 346 348 350 1 9 19 30 36 23 13 12 7 6 15 16 19 20 16 16 12 0 1 3 4 5 3 359 355 352 333 171
334 338 338 339 344 352 335 334 336 338 337 339 344 349 351 352 7 17 23 29 32 18 8 6 10 17 18 18 20 18 17 16 9 8 9 9 5 0 353 352 357 10 34
337 336 332 336 337 339 332 333 337 340 339 346 347 349 349 351 355 17 23 25 28 26 12 18 20 21 19 16 16 19 17 15 12 11 9 4 358 355 357 360 5 17 41
335 331 331 335 337 334 339 342 341 339 340 343 345 342 336 339 339 359 7 23 26 25 15 14 18 19 21 18 17 16 15 16 16 10 4 360 360 5 11 11 14 16 42
329 327 330 340 332 332 340 338 342 331 350 351 334 326 333 330 350 8 15 15 18 26 19 13 15 15 16 14 14 14 13 13 14 10 8 6 8 10 13 14 21 32 48
333 330 324 329 335 336 330 333 345 351 351 353 351 350 343 346 352 360 5 9 14 20 24 13 13 13 14 13 12 11 12 13 11 11 12 11 12 13 15 18 25 34 43
327 323 318 333 331 332 334 334 333 337 344 348 348 346 345 346 347 346 351 359 2 10 16 355 356 359 1 3 4 5 6 5 7 12 15 14 14 16 19 23 25 31 37
324 325 330 315 317 320 320 322 324 328 331 331 336 338 337 338 340 338 339 346 341 346 327 323 327 334 341 347 353 357 358 1 7 11 13 15 17 21 24 24 27 32 35
324 318 315 314 317 319 319 323 326 328 330 327 327 330 332 327 327 330 334 323 300 299 297 298 298 306 317 329 337 345 351 358 2 5 11 13 15 22 27 27 30 36 41
318 334 340 333 325 325 325 329 333 333 333 332 332 327 323 321 322 321 316 297 288 283 280 278 278 279 286 297 311 328 343 353 358 3 5 9 12 21 26 29 32 36 39
312 325 343 338 323 319 320 329 331 332 333 334 332 332 345 346 330 319 312 300 287 280 274 269 265 263 261 259 264 284 308 327 343 350 358 6 12 20 21 29 34 38 42
313 316 320 321 323 327 339 334 331 332 334 334 334 336 346 346 332 326 319 309 294 279 267 261 256 247 236 231 231 236 250 269 286 313 341 1 15 22 26 30 34 38 44
322 324 328 329 327 341 346 334 337 337 336 334 336 341 343 342 340 337 332 325 313 296 280 263 255 249 243 237 230 219 219 228 226 211 219 311 17 30 39 39 37 41 43
324 327 331 335 339 341 338 338 339 340 338 338 340 341 340 339 337 336 335 331 326 315 298 275 257 249 242 236 231 226 225 227 222 211 201 191 191 109 75 64 57 51 48
315 322 329 332 337 338 337 337 338 339 338 338 340 339 338 336 335 333 331 330 328 324 314 297 273 256 247 238 228 223 224 224 220 211 201 188 182 180 164 138 114 90 76
283 310 318 322 328 331 333 334 334 334 334 335 335 333 333 333 332 330 329 329 329 326 322 314 291 269 255 241 230 225 224 223 220 213 196 184 177 183 178 174 171 152 129
Height
1543 1536 1529 1521 1515 1508 1501 1494 1488 1481 1474 1467 1460 1453 1446 1440 1435 1431 1426 1423 1420 1417 1414 1412 1409 1407 1404 1401 1399 1397 1395 1393 1389 1384 1385 1385 1385 1386 1389 1392 1396 1401 1407
1541 1534 1527 1520 1513 1506 1500 1493 1486 1479 1472 1465 1457 1450 1443 1436 1431 1426 1422 1420 1416 1413 1411 1409 1406 1403 1400 1397 1394 1391 1389 1388 1385 1381 1380 1381 1382 1383 1384 1387 1391 1396 1401
1539 1532 1525 1518 1512 1505 1498 1492 1485 1478 1470 1463 1455 1447 1439 1432 1426 1422 1419 1416 1414 1411 1409 1406 1403 1400 1396 1393 1390 1387 1384 1382 1380 1378 1376 1377 1378 1380 1382 1384 1387 1390 1396
1538 1531 1524 1518 1511 1505 1498 1491 1484 1477 1469 1461 1453 1445 1437 1429 1423 1419 1416 1414 1413 1411 1408 1405 1402 1398 1395 1391 1387 1383 1380 1378 1376 1374 1372 1373 1375 1376 1379 1381 1384 1387 1392
1537 1530 1524 1518 1511 1504 1497 1490 1484 1477 1470 1462 1454 1445 1436 1428 1422 1418 1416 1415 1413 1410 1408 1405 1402 1398 1394 1390 1386 1381 1377 1374 1372 1370 1369 1370 1371 1372 1375 1378 1380 1383 1388
1537 1530 1524 1517 1511 1504 1497 1491 1484 1477 1471 1464 1456 1447 1438 1430 1425 1422 1418 1417 1414 1412 1409 1406 1402 1398 1394 1389 1384 1380 1376 1373 1370 1367 1367 1367 1368 1370 1372 1375 1378 1381 1385
1537 1530 1524 1517 1511 1504 1498 1492 1485 1478 1472 1466 1459 1451 1443 1436 1431 1427 1423 1420 1417 1414 1411 1408 1404 1400 1395 1389 1384 1379 1375 1372 1370 1367 1365 1365 1365 1367 1369 1371 1374 1378 1382
1536 1530 1524 1517 1511 1505 1499 1493 1486 1480 1474 1468 1462 1455 1449 1442 1437 1433 1429 1425 1421 1418 1414 1411 1407 1402 1398 1391 1385 1380 1375 1371 1368 1366 1364 1363 1363 1364 1365 1367 1370 1374 1378
1536 1530 1524 1518 1512 1506 1500 1494 1488 1482 1477 1471 1465 1459 1453 1447 1443 1438 1433 1429 1425 1421 1417 1414 1410 1405 1401 1394 1387 1381 1376 1372 1368 1366 1364 1362 1360 1360 1361 1363 1367 1371 1374
1536 1531 1525 1519 1513 1507 1502 1496 1491 1485 1480 1474 1469 1463 1457 1452 1448 1443 1437 1433 1428 1424 1420 1416 1412 1408 1403 1397 1390 1384 1379 1374 1369 1366 1363 1361 1359 1358 1359 1361 1363 1366 1370
1538 1532 1526 1520 1514 1509 1503 1498 1493 1487 1482 1477 1472 1467 1461 1457 1452 1448 1442 1436 1432 1427 1423 1418 1414 1410 1405 1399 1394 1388 1384 1378 1372 1368 1364 1360 1358 1357 1357 1358 1360 1363 1367
1539 1533 1527 1521 1515 1510 1504 1499 1494 1489 1484 1479 1474 1469 1465 1460 1456 1452 1447 1442 1436 1431 1427 1423 1418 1413 1407 1402 1397 1392 1387 1381 1376 1371 1366 1362 1359 1357 1356 1357 1358 1361 1365
1540 1534 1528 1523 1517 1511 1505 1499 1494 1490 1485 1480 1476 1472 1467 1463 1459 1455 1450 1445 1440 1435 1430 1427 1421 1415 1409 1404 1400 1395 1389 1384 1379 1374 1370 1367 1363 1360 1358 1358 1359 1361 1364
1540 1534 1529 1523 1518 1512 1506 1500 1495 1490 1486 1482 1478 1474 1470 1466 1461 1457 1453 1448 1443 1439 1434 1429 1424 1419 1413 1408 1403 1398 1393 1389 1386 1381 1377 1373 1369 1365 1361 1360 1360 1361 1364
1540 1535 1529 1524 1519 1514 1508 1503 1497 1492 1489 1484 1479 1475 1471 1467 1464 1460 1456 1452 1447 1443 1438 1432 1427 1421 1416 1412 1407 1403 1399 1395 1391 1387 1383 1379 1374 1370 1367 1364 1363 1363 1364
1539 1535 1530 1525 1520 1515 1510 1505 1500 1494 1489 1484 1480 1476 1472 1469 1465 1461 1457 1454 1450 1446 1441 1435 1431 1426 1422 1418 1413 1409 1405 1401 1397 1394 1390 1386 1382 1378 1375 1372 1370 1369 1369
1539 1535 1530 1525 1520 1515 1510 1505 1500 1495 1491 1485 1479 1475 1472 1468 1464 1461 1457 1454 1450 1446 1442 1439 1435 1431 1427 1423 1419 1415 1411 1407 1404 1400 1396 1393 1389 1386 1383 1380 1378 1376 1376
1539 1535 1530 1525 1521 1516 1511 1506 1501 1495 1490 1485 1480 1475 1471 1467 1463 1459 1456 1452 1449 1446 1443 1440 1437 1434 1431 1427 1424 1420 1417 1413 1409 1405 1402 1399 1396 1393 1390 1388 1386 1385 1384
1538 1534 1529 1525 1521 1516 1511 1506 1501 1496 1491 1486 1481 1476 1471 1467 1463 1458 1454 1451 1447 1445 1442 1440 1438 1435 1432 1430 1427 1424 1421 1417 1414 1411 1408 1405 1402 1400 1398 1396 1395 1394 1392
1538 1533 1529 1524 1520 1515 1510 1505 1500 1496 1491 1486 1481 1476 1471 1466 1462 1457 1453 1449 1446 1443 1440 1438 1436 1434 1432 1430 1428 1426 1423 1421 1418 1416 1413 1410 1408 1406 1405 1403 1402 1401 1400
1537 1533 1529 1524 1520 1514 1509 1504 1499 1494 1490 1485 1481 1476 1472 1467 1462 1457 1453 1448 1444 1441 1438 1435 1433 1432 1430 1429 1428 1426 1425 1423 1421 1419 1417 1415 1413 1412 1411 1410 1409 1408 1408
1536 1533 1529 1524 1520 1514 1509 1504 1499 1494 1489 1484 1479 1475 1471 1466 1461 1457 1452 1447 1443 1439 1435 1432 1430 1428 1427 1426 1426 1425 1424 1423 1422 1421 1420 1419 1418 1417 1416 1415 1414 1414 1415
1536 1533 1529 1525 1520 1515 1510 1505 1499 1493 1488 1483 1478 1474 1469 1465 1460 1456 1451 1446 1442 1437 1433 1430 1427 1425 1423 1423 1422 1422 1422 1422 1422 1422 1421 1421 1420 1420 1419 1419 1419 1419 1420
1535 1532 1529 1525 1520 1516 1510 1505 1499 1494 1488 1482 1477 1472 1468 1463 1459 1454 1449 1445 1440 1435 1431 1427 1423 1421 1419 1418 1417 1418 1418 1419 1420 1421 1421 1421 1421 1421 1422 1422 1422 1423 1423
1534 1531 1528 1524 1520 1516 1511 1505 1500 1494 1488 1482 1477 1471 1467 1462 1457 1453 1448 1443 1438 1433 1428 1424 1420 1417 1414 1413 1412 1412 1413 1415 1416 1418 1419 1420 1421 1422 1422 1423 1424 1425 1426
1532 1530 1527 1524 1520 1515 1510 1505 1500 1494 1489 1483 1477 1471 1466 1461 1456 1451 1446 1441 1436 1431 1426 1421 1417 1413 1409 1407 1406 1406 1407 1409 1411 1414 1416 1418 1420 1421 1422 1423 1424 1425 1426